Terminal Aerodrome Forecast
Issued by NWS Amarillo, TX

Home | Current Version | Previous Version | Text Only | Print | Product List | Glossary On
Versions: 1 2 3 4 5 6 7 8 9 10 11 12 13 14 15
000
FTUS44 KAMA 182300
TAFGUY
TAF
KGUY 182334Z 1900/1924 04005KT P6SM SCT005 OVC010
     FM190200 14005KT 4SM BR OVC005
     FM190600 22004KT 2SM BR OVC004
     FM191600 23005KT P6SM OVC010=

USA.gov is the U.S. government's official web portal to all federal, state and local government web resources and services.